COSMOS 2251 DEB, 34611

Orbit data source: Space-Track

COSMOS 2251 DEB, 34611 is space debris in LEO originally from a launch on Wed, 16 Jun 1993 UTC launched from the Plesetsk Missile And Space Complex (PKMTR). The debris from Iridium 33, an American commercial communications satellite, has been tracked extensively since its accidental collision with the defunct Russian satellite Cosmos 2251 in 2009. This event, occurring at high speed in low Earth orbit (LEO), generated thousands of pieces of space debris, significantly increasing the risk of further collisions. The Iridium 33 debris cloud has impacted space traffic management and orbital debris mitigation strategies, making it a subject of ongoing study in space situational awareness.

Loading next visibility...
Identifier
34611, 1993-036WG
Orbit
LEO
Country
Flag of CISCIS
Related business
Manufacturer
Unknown
Mission
Spacecraft
Bus & Motor
Unknown
Mass
Unknown
Launch date (UTC)
1993-06-16 (33 years ago)
Launch vehicle
Unknown
Launch site
Plesetsk Missile And Space Complex (PKMTR)
Object type
Payload
Rocket body
Debris
Shape & HBR
Unknown shape, 0.1 m
Radar Cross Section
Small (<0.1 m²)

Expand to show TLE details & history
Last TLE update: 1 day ago

TLE from 1 day ago
0 COSMOS 2251 DEB
1 34611U 93036WG  25353.22848125  .00006048  00000-0  10180-2 0  9996
2 34611  74.0542  88.4074 0021989 127.6644 252.8321 14.69617170884868
Epoch: 2025-12-19T05:29Z
TLE epoch observation values (Epoch: 2025-12-19T05:29:00.780Z)
Latitude
19.451°
Longitude
-76.15859°
Altitude
669.08 km
Speed
7.522 km/s
True Right ascension
06h 16m 40s
True Declination
19° 20' 31"
Sunlit
Object was in full shadow at epoch
Visualization orbit readout
Latitude
Unknown
Longitude
Unknown
Altitude
Unknown
Speed
Unknown
Apparent Right ascension
Unknown
Apparent Declination
Unknown
Sunlit
N/A
Visualization observer readout
Local Sidereal Time
06:50:37
Azimuth
Unknown
Elevation
Unknown
Doppler factor
Unknown
Orbital elements
Apogee altitude
675.352 km
Perigee altitude
644.4 km
Semi-major axis
7,038.013 km
Eccentricity
0.0022
Inclination
74.0542°
RAAN
88.4074°
Arg. of periapsis
127.6644°
True anomaly
252.59155°
Mean anomaly
252.8321°
Eccentric anomaly
252.7118°
Mean motion
3.67594 °/min
Orbital period
97.93 mins
BSTAR
0.001018
Loading maneuver chart data...
Computing Atmospheric mass density...

Documentation

Showing up to 5 results
|